Weather Roundup
Issued by NWS

Home | Current Version | Previous Version | Text Only | Print | Product List | Glossary On
Versions: 1 2 3 4 5 6 7 8 9 10 11 12 13 14 15 16 17 18 19 20 21 22 23 24 25 26 27 28 29 30 31 32 33 34 35 36 37 38 39 40 41 42 43 44 45 46 47 48 49 50
000
NZUS93 KARX 301510
HRRWXR

CURRENT HOURLY OBSERVATIONS ACROSS
MUCH OF THE UPPER MISSISSIPPI VALLEY
NATIONAL WEATHER SERVICE LA CROSSE WI
1000 AM CDT SAT APR 30 2016


...SOUTHEAST MINNESOTA...


CITY           SKY/WX    TMP DP  RH WIND       PRES   REMARKS
ROCHESTER      CLOUDY    44  39  82 E17       30.02S
ROCHESTER/MAYO FAIR      44  37  76 NE12G21   30.03S
WINONA         CLOUDY    46  36  66 SE6       30.06S
AUSTIN         CLOUDY    45  39  81 E21G26    29.97S
ALBERT LEA     CLOUDY    46  41  81 E17G24    29.96S
DODGE CENTER   CLOUDY    45  37  76 E20       30.01S
PRESTON        CLOUDY    44  37  77 E13G22    30.01S
OWATONNA       CLOUDY    46  39  76 E17G26    30.01S
FARIBAULT      CLOUDY    48  39  71 NE13G20   30.04S
$$

...ELSEWHERE IN MINNESOTA...


CITY           SKY/WX    TMP DP  RH WIND       PRES   REMARKS
MINNEAPOLIS    CLOUDY    50  32  50 E16       30.08F
INTNL FALLS    SUNNY     47  32  56 N12       30.32S
DULUTH         MOSUNNY   46  31  55 E22G28    30.24R
RED WING       CLOUDY    48  34  57 E12G17    30.06S
REDWOOD FALLS  CLOUDY    46  35  65 NE13G21   30.03S
MANKATO        CLOUDY    48  37  66 E21G28    30.01S
WORTHINGTON    LGT RAIN  42  39  89 NE26G33   29.91F
FAIRMONT       CLOUDY    45  32  61 E20       29.94F
$$

...SOUTHWEST WISCONSIN...


CITY           SKY/WX    TMP DP  RH WIND       PRES   REMARKS
LA CROSSE      CLOUDY    47  32  56 E9        30.05F
PRAIRIE DU CHI CLOUDY    49  35  60 E9G16     29.99S
BOSCOBEL       CLOUDY    49  36  61 E12G17    30.02S
LONE ROCK      CLOUDY    48  37  65 E15       30.04F
PLATTEVILLE    CLOUDY    47  43  86 E18G26    29.98S
FORT MC COY    CLOUDY    46  35  65 E9        30.06F
CAMP DOUGLAS   CLOUDY    46  41  81 E13       30.07S
MAUSTON-NEW LI NOT AVBL
VIROQUA        CLOUDY    44  33  65 E16       30.03S
WIS DELLS      CLOUDY    46  35  64 E12       30.06F
$$

...ELSEWHERE IN WISCONSIN...


CITY           SKY/WX    TMP DP  RH WIND       PRES   REMARKS
MILWAUKEE      CLOUDY    45  39  79 E14       30.10R
MADISON        CLOUDY    47  38  71 E14       30.06F
GREEN BAY      PTSUNNY   48  40  73 NE12      30.16R
EAU CLAIRE     CLOUDY    48  33  56 E14       30.10F
BLACK RVR FLS  FAIR      47  32  56 E9        30.07F
MEDFORD        CLOUDY    47  33  57 NE12G17   30.12F
WAUSAU         CLOUDY    52  32  46 NE9G18    30.11F
WIS RAPIDS     CLOUDY    48  31  51 E14G22    30.11F
MARSHFIELD     CLOUDY    48  33  56 E15       30.10S
RICE LAKE      CLOUDY    50  31  47 NE12G17   30.15F
$$

...NORTHEAST IOWA...


CITY           SKY/WX    TMP DP  RH WIND       PRES   REMARKS
WATERLOO       LGT RAIN  45  42  89 E22       29.90F FOG
DUBUQUE        NOT AVBL
DECORAH        CLOUDY    46  39  76 E20G25    29.97F
MASON CITY     LGT RAIN  44  41  89 E21G28    29.93F FOG
CHARLES CITY   LGT RAIN  45  45 100 E20G30    29.94F
OELWEIN        LGT RAIN  45  45 100 E23       29.93F
$$

...ELSEWHERE IN IOWA...


CITY           SKY/WX    TMP DP  RH WIND       PRES   REMARKS
DES MOINES     LGT RAIN  47  43  86 E14G23    29.76F FOG
IOWA CITY      LGT RAIN  48  45  89 E14G25    29.87F FOG
FORT DODGE     CLOUDY    43  37  81 E15       29.87R
MARSHALLTOWN   RAIN      45  43  93 E23G31    29.83F FOG
CEDAR RAPIDS   LGT RAIN  46  46 100 E20       29.85F FOG
$$

...NORTHERN ILLINOIS...


CITY           SKY/WX    TMP DP  RH WIND       PRES   REMARKS
CHICAGO-OHARE  CLOUDY    48  39  71 E13       30.04S
CHICAGO-MIDWAY LGT RAIN  49  40  71 E17       30.03F
MOLINE         LGT RAIN  49  45  86 E21       29.87F FOG
ROCKFORD       CLOUDY    50  43  77 E13G20    30.03F
PEORIA         LGT RAIN  51  49  92 E15       29.86F FOG
$$

NOTE: "FAIR" INDICATES FEW OR NO CLOUDS BELOW 12,000 FEET WITH NO
SIGNIFICANT WEATHER AND/OR OBSTRUCTIONS TO VISIBILITY. WIND
SPEEDS ARE IN MILES-PER-HOUR.




USA.gov is the U.S. government's official web portal to all federal, state and local government web resources and services.